Frankfort, MI

6:53 AM EDT on September 25, 2017 (GMT -0400)
Frankfort

Weather History for KFKS - December, 2012

Change the Weather History Date:

Friday, December 7, 2012

  Actual Average (KMBL) Record (KMBL)
Temperature  
Mean Temperature 38 °F -  
Max Temperature 43 °F 34 °F 54 °F (1951)
Min Temperature 34 °F 24 °F 6 °F (1954)
Degree Days  
Heating Degree Days 26    
Moisture  
Dew Point 31 °F    
Average Humidity 74    
Maximum Humidity 91    
Minimum Humidity 67    
Precipitation  
Precipitation 0.00 in - - ()
Sea Level Pressure  
Sea Level Pressure 29.93 in    
Wind  
Wind Speed 6 mph (North)    
Max Wind Speed 10 mph    
Max Gust Speed -    
Visibility 10 miles    
Events      
Averages and records for this station are not official NWS values.
T = Trace of Precipitation, MM = Missing Value Source: NWS Daily Summary

Daily Weather History Graph

Daily Weather History Graph

Search for Another Location

Airport or City:

Trip Planner

Search our weather history database for the weather conditions in past years. The results will help you decide how hot, cold, wet, or windy it might be!

Date:

Astronomy

Dec. 07, 2012 Rise Set
Actual Time 8:08 AM EST 5:04 PM EST
Civil Twilight 7:35 AM EST 5:37 PM EST
Nautical Twilight 6:58 AM EST 6:14 PM EST
Astronomical Twilight 6:23 AM EST 6:49 PM EST
Moon 1:13 AM EST (12/7) 1:13 PM EST (12/7)
Length of Visible Light 10h 02m
Length of Day
8h 56m
Last Quarter, 39% of the Moon is Illuminated
Dec 7
Last Quarter
Dec 13
New
Dec 20
First Quarter
Dec 28
Full
Jan 4
Last Quarter

Hourly Weather History & Observations

Time (EST) Temp. Windchill Dew Point Humidity Pressure Visibility Wind Dir Wind Speed Gust Speed Precip Events Conditions
12:11 AM 43.2 °F 39.0 °F 36.9 °F 78% 29.85 in 10.0 mi West 6.9 mph - N/A   Scattered Clouds
12:32 AM 43.2 °F 37.4 °F 36.7 °F 78% 29.85 in 10.0 mi West 10.4 mph - N/A   Scattered Clouds
12:52 AM 43.3 °F 39.9 °F 37.0 °F 78% 29.85 in 10.0 mi WSW 5.8 mph - N/A   Mostly Cloudy
1:12 AM 42.8 °F 38.0 °F 36.7 °F 79% 29.85 in 10.0 mi West 8.1 mph - N/A   Scattered Clouds
1:32 AM 42.6 °F 37.2 °F 36.3 °F 78% 29.84 in 10.0 mi West 9.2 mph - N/A   Clear
1:52 AM 42.3 °F 37.3 °F 36.3 °F 79% 29.85 in 10.0 mi WNW 8.1 mph - N/A   Scattered Clouds
2:12 AM 41.7 °F 36.1 °F 35.8 °F 79% 29.85 in 10.0 mi WNW 9.2 mph - N/A   Scattered Clouds
2:32 AM 41.5 °F 37.1 °F 36.0 °F 81% 29.86 in 10.0 mi WNW 6.9 mph - N/A   Mostly Cloudy
2:52 AM 41.2 °F 36.0 °F 35.6 °F 81% 29.86 in 10.0 mi WNW 8.1 mph - N/A   Overcast
3:12 AM 40.3 °F 36.3 °F 34.9 °F 81% 29.87 in 10.0 mi NW 5.8 mph - N/A   Scattered Clouds
3:33 AM 40.3 °F 35.5 °F 34.2 °F 79% 29.88 in 10.0 mi NW 6.9 mph - N/A   Clear
3:53 AM 39.2 °F 35.0 °F 33.1 °F 79% 29.88 in 10.0 mi NW 5.8 mph - N/A   Clear
4:13 AM 38.5 °F - 32.9 °F 80% 29.88 in 10.0 mi Calm Calm - N/A   Clear
4:33 AM 36.5 °F - 32.0 °F 84% 29.88 in 10.0 mi Calm Calm - N/A   Clear
4:53 AM 35.6 °F - 32.0 °F 87% 29.89 in 10.0 mi Calm Calm - N/A   Clear
5:13 AM 34.7 °F - 31.8 °F 89% 29.89 in 10.0 mi Calm Calm - N/A   Clear
5:33 AM 34.2 °F - 31.8 °F 91% 29.90 in 10.0 mi Calm Calm - N/A   Clear
5:53 AM 38.3 °F 34.8 °F 32.9 °F 81% 29.89 in 10.0 mi NNW 4.6 mph - N/A   Scattered Clouds
6:13 AM 38.5 °F 36.1 °F 32.4 °F 79% 29.90 in 10.0 mi NW 3.5 mph - N/A   Scattered Clouds
6:33 AM 38.5 °F 34.1 °F 32.4 °F 79% 29.90 in 10.0 mi NW 5.8 mph - N/A   Mostly Cloudy
6:54 AM 39.0 °F 36.8 °F 32.0 °F 76% 29.91 in 10.0 mi NNW 3.5 mph - N/A   Overcast
7:14 AM 39.2 °F 37.0 °F 32.0 °F 75% 29.92 in 10.0 mi NNW 3.5 mph - N/A   Overcast
7:34 AM 39.2 °F - 32.0 °F 75% 29.92 in 10.0 mi Calm Calm - N/A   Overcast
7:54 AM 39.2 °F 35.9 °F 32.0 °F 75% 29.93 in 10.0 mi NNW 4.6 mph - N/A   Overcast
8:14 AM 39.2 °F 35.0 °F 32.0 °F 75% 29.93 in 10.0 mi NNW 5.8 mph - N/A   Overcast
8:34 AM 38.7 °F 33.6 °F 32.2 °F 78% 29.93 in 10.0 mi North 6.9 mph - N/A   Overcast
8:54 AM 38.5 °F 36.1 °F 32.0 °F 78% 29.94 in 10.0 mi NNW 3.5 mph - N/A   Mostly Cloudy
9:14 AM 38.5 °F 35.0 °F 32.0 °F 78% 29.94 in 10.0 mi North 4.6 mph - N/A   Scattered Clouds
9:34 AM 38.5 °F 36.1 °F 32.0 °F 78% 29.95 in 10.0 mi North 3.5 mph - N/A   Scattered Clouds
9:55 AM 38.7 °F - 32.0 °F 77% 29.94 in 10.0 mi Calm Calm - N/A   Clear
10:15 AM 39.2 °F 35.9 °F 32.0 °F 75% 29.95 in 10.0 mi NNW 4.6 mph - N/A   Clear
10:35 AM 39.4 °F 35.2 °F 32.0 °F 75% 29.96 in 10.0 mi NNW 5.8 mph - N/A   Scattered Clouds
10:55 AM 39.2 °F 35.9 °F 31.6 °F 74% 29.97 in 10.0 mi North 4.6 mph - N/A   Overcast
11:15 AM 39.7 °F 35.6 °F 31.6 °F 73% 29.97 in 10.0 mi North 5.8 mph - N/A   Overcast
11:35 AM 40.1 °F 36.1 °F 31.1 °F 70% 29.96 in 10.0 mi NNW 5.8 mph - N/A   Overcast
11:55 AM 39.7 °F 35.6 °F 32.0 °F 74% 29.95 in 10.0 mi NNW 5.8 mph - N/A   Mostly Cloudy
12:15 PM 41.0 °F - 32.4 °F 71% 29.94 in 10.0 mi Calm Calm - N/A   Scattered Clouds
12:36 PM 41.0 °F 39.0 °F 32.0 °F 70% 29.94 in 10.0 mi North 3.5 mph - N/A   Scattered Clouds
12:56 PM 40.1 °F 36.9 °F 31.3 °F 71% 29.94 in 10.0 mi North 4.6 mph - N/A   Scattered Clouds
1:16 PM 41.0 °F 36.4 °F 31.6 °F 69% 29.94 in 10.0 mi North 6.9 mph - N/A   Clear
1:36 PM 41.5 °F 36.4 °F 31.6 °F 68% 29.94 in 10.0 mi NNW 8.1 mph - N/A   Clear
1:56 PM 40.3 °F 36.3 °F 31.8 °F 72% 29.94 in 10.0 mi North 5.8 mph - N/A   Clear
2:16 PM 40.5 °F 35.8 °F 31.6 °F 71% 29.93 in 10.0 mi North 6.9 mph - N/A   Scattered Clouds
2:36 PM 41.2 °F 37.3 °F 31.5 °F 68% 29.93 in 10.0 mi NNE 5.8 mph - N/A   Scattered Clouds
2:56 PM 40.1 °F 36.1 °F 30.7 °F 69% 29.93 in 10.0 mi NNE 5.8 mph - N/A   Scattered Clouds
3:16 PM 39.7 °F 35.6 °F 30.2 °F 69% 29.93 in 10.0 mi NNE 5.8 mph - N/A   Scattered Clouds
3:32 PM 39.6 °F 34.0 °F 30.0 °F 69% 29.94 in 10.0 mi NNE 8.1 mph - N/A   Clear
3:52 PM 39.4 °F 35.2 °F 29.3 °F 67% 29.95 in 10.0 mi NNE 5.8 mph - N/A   Clear
4:12 PM 39.2 °F 35.0 °F 29.3 °F 68% 29.95 in 10.0 mi NNE 5.8 mph - N/A   Clear
4:32 PM 38.5 °F 34.1 °F 29.8 °F 71% 29.95 in 10.0 mi NNE 5.8 mph - N/A   Clear
4:52 PM 37.8 °F 32.5 °F 29.3 °F 72% 29.95 in 10.0 mi ENE 6.9 mph - N/A   Clear
5:12 PM 37.4 °F 32.1 °F 28.9 °F 71% 29.95 in 10.0 mi NE 6.9 mph - N/A   Clear
5:32 PM 37.0 °F 32.4 °F 28.4 °F 71% 29.95 in 10.0 mi ENE 5.8 mph - N/A   Clear
5:52 PM 36.9 °F 32.2 °F 28.2 °F 71% 29.95 in 10.0 mi NE 5.8 mph - N/A   Clear
6:12 PM 36.5 °F 32.7 °F 27.9 °F 71% 29.95 in 10.0 mi NE 4.6 mph - N/A   Clear
6:33 PM 36.5 °F 32.7 °F 27.5 °F 70% 29.96 in 10.0 mi NE 4.6 mph - N/A   Clear
6:53 PM 36.0 °F 29.6 °F 27.3 °F 71% 29.96 in 10.0 mi ENE 8.1 mph - N/A   Clear
7:13 PM 36.0 °F 33.3 °F 27.3 °F 71% 29.97 in 10.0 mi ENE 3.5 mph - N/A   Scattered Clouds
7:33 PM 35.8 °F 31.9 °F 26.8 °F 70% 29.97 in 10.0 mi ENE 4.6 mph - N/A   Scattered Clouds
7:53 PM 35.8 °F 31.9 °F 26.6 °F 69% 29.97 in 10.0 mi NE 4.6 mph - N/A   Mostly Cloudy
8:13 PM 35.6 °F 31.7 °F 26.6 °F 70% 29.97 in 10.0 mi ENE 4.6 mph - N/A   Overcast
8:33 PM 35.6 °F 29.2 °F 26.6 °F 70% 29.96 in 10.0 mi NE 8.1 mph - N/A   Overcast
8:53 PM 35.6 °F 29.9 °F 27.0 °F 71% 29.95 in 10.0 mi ENE 6.9 mph - N/A   Overcast
9:13 PM 35.6 °F 32.8 °F 27.0 °F 71% 29.95 in 10.0 mi ENE 3.5 mph - N/A   Overcast
9:34 PM 35.2 °F 32.4 °F 27.0 °F 72% 29.97 in 10.0 mi NE 3.5 mph - N/A   Overcast
9:54 PM 35.4 °F 32.6 °F 26.8 °F 71% 29.97 in 10.0 mi NE 3.5 mph - N/A   Overcast
10:14 PM 35.6 °F 32.8 °F 27.0 °F 71% 29.97 in 10.0 mi NE 3.5 mph - N/A   Overcast
10:34 PM 35.6 °F 30.7 °F 27.0 °F 71% 29.97 in 10.0 mi NE 5.8 mph - N/A   Overcast
10:54 PM 35.6 °F 30.7 °F 27.1 °F 71% 29.96 in 10.0 mi ENE 5.8 mph - N/A   Overcast
11:14 PM 35.6 °F 30.7 °F 27.3 °F 72% 29.95 in 10.0 mi ENE 5.8 mph - N/A   Overcast
11:34 PM 35.6 °F 30.7 °F 27.3 °F 72% 29.96 in 10.0 mi NE 5.8 mph - N/A   Overcast
11:55 PM 35.2 °F 30.3 °F 27.3 °F 73% 29.97 in 10.0 mi ENE 5.8 mph - N/A   Overcast